This is the latest recevied weather packets stored in our database for station/object WV8BRW. If no packets are shown the sender has not sent any weather packets the latest 10 day(s).
| Time | Temp. | Humidity | Pressure | Rain* | Wind** | Luminosity | Snow |
|---|---|---|---|---|---|---|---|
| 1777901140 | 13.89° C | 77% | 1012.4 hPa | 0 mm | - | 129 W/m² | - |
| 1777900838 | 13.89° C | 76% | 1012.5 hPa | 0 mm | - | 65 W/m² | - |
| 1777900535 | 13.89° C | 75% | 1012.5 hPa | 0 mm | - | 117 W/m² | - |
| 1777900232 | 13.33° C | 77% | 1012.1 hPa | 0 mm | - | 131 W/m² | - |
| 1777899928 | 13.33° C | 80% | 1012.3 hPa | 0 mm | - | 125 W/m² | - |
| 1777899626 | 13.33° C | 80% | 1011.9 hPa | 0 mm | - | 108 W/m² | - |
| 1777899322 | 12.78° C | 81% | 1011.8 hPa | 0 mm | - | 119 W/m² | - |
| 1777899020 | 12.78° C | 79% | 1011.7 hPa | 0 mm | - | 109 W/m² | - |
| 1777898717 | 12.22° C | 81% | 1011.9 hPa | 0 mm | - | 114 W/m² | - |
| 1777898415 | 11.67° C | 83% | 1011.8 hPa | 0 mm | - | 113 W/m² | - |
| 1777898112 | 11.67° C | 85% | 1011.9 hPa | 0 mm | - | 115 W/m² | - |
| 1777897809 | 11.11° C | 85% | 1011.9 hPa | 0 mm | - | 107 W/m² | - |
| 1777897504 | 10.56° C | 88% | 1011.8 hPa | 0 mm | - | 104 W/m² | - |
| 1777897200 | 10° C | 92% | 1012.1 hPa | 0 mm | - | 88 W/m² | - |
| 1777896896 | 10° C | 92% | 1012 hPa | 0 mm | - | 64 W/m² | - |
| 1777896594 | 9.44° C | 92% | 1012.2 hPa | 0 mm | - | 63 W/m² | - |
| 1777896290 | 9.44° C | 92% | 1011.9 hPa | 0 mm | - | 47 W/m² | - |
| 1777895989 | 8.89° C | 91% | 1012.1 hPa | 0 mm | - | 43 W/m² | - |
| 1777895687 | 8.89° C | 90% | 1012 hPa | 0 mm | - | 35 W/m² | - |
| 1777895383 | 8.33° C | 90% | 1011.8 hPa | 0 mm | - | 42 W/m² | - |
| 1777895081 | 8.33° C | 91% | 1012 hPa | 0 mm | - | 33 W/m² | - |
| 1777894778 | 7.78° C | 92% | 1011.7 hPa | 0 mm | - | 28 W/m² | - |
| 1777894474 | 7.78° C | 94% | 1011.9 hPa | 0 mm | - | 38 W/m² | - |
| 1777894172 | 7.22° C | 94% | 1012 hPa | 0 mm | - | 39 W/m² | - |
| 1777893869 | 7.22° C | 95% | 1011.9 hPa | 0 mm | - | 45 W/m² | - |
* Rain latest hour (hover to see other rain measurements)
** Current wind speed in m/s (hover to see current wind gust speed)